Simultaneous Nadir Overpasses (SNOs) Predictions

Prediction of SNOs between LANDSAT-8 and METOP-B Satellite Orbit:

Table of predicted SNOs for the next 14.0 days since TLE Epoch: 8/25/2018
Index Date (LANDSAT-8) Time (LANDSAT-8) Lat,Lon (LANDSAT-8) SZA (LANDSAT-8 ) Date (METOP-B) Time (METOP-B) Lat,Lon (METOP-B) SZA (METOP-B ) Distance(km) Time Diff (sec)
1 08/26/2018 07:12:17 -81.25, -66.04 106.92 08/26/2018 07:11:35 -81.25, -65.85 106.91 3.27 42
2 08/26/2018 08:01:43 81.26, 101.73 73.12 08/26/2018 08:02:15 81.25, 101.69 73.13 0.74 32
3 08/29/2018 02:46:34 -81.24, 0.18 105.94 08/29/2018 02:45:55 -81.24, 0.34 105.94 2.79 39
4 08/29/2018 03:35:59 81.26, 168.30 74.15 08/29/2018 03:36:34 81.26, 168.22 74.15 1.57 35
5 08/31/2018 22:20:50 -81.24, 66.75 104.89 08/31/2018 22:20:14 -81.25, 66.90 104.89 2.60 36
6 08/31/2018 23:10:16 81.25,-125.53 75.13 08/31/2018 23:10:54 81.25,-125.65 75.14 2.00 38
7 09/03/2018 17:55:06 -81.25, 133.29 103.83 09/03/2018 17:54:33 -81.25, 133.45 103.83 2.75 33
8 09/03/2018 18:44:32 81.25, -59.02 76.19 09/03/2018 18:45:13 81.25, -59.14 76.20 2.05 41
9 09/06/2018 13:29:21 -81.25,-160.20 102.76 09/06/2018 13:28:51 -81.25,-160.01 102.75 3.22 30




NCC Satellite Simultaneous Nadir Overpasses (SNOs) Prediction Service
